Regional Weather Roundup
Issued by NWS

Home | Current Version | Previous Version | Graphics & Text | Print | Product List | Glossary On
Versions: 1 2 3 4 5 6 7 8 9 10 11 12 13 14 15 16 17 18 19 20 21 22 23 24 25 26 27 28 29 30 31 32 33 34 35 36 37 38 39 40 41 42 43 44 45 46 47 48 49 50
355
ASUS45 KCYS 302010
RWRWY

WYOMING REGIONAL WEATHER ROUNDUP
NATIONAL WEATHER SERVICE CHEYENNE WY
200 PM MDT FRI SEP 30 2016

NOTE:  "FAIR" INDICATES FEW OR NO CLOUDS BELOW 12,000 FEET
WITH NO SIGNIFICANT WEATHER AND/OR OBSTRUCTIONS TO VISIBILITY.

WYZ001-302100-
YELLOWSTONE NATIONAL PARK

CITY           SKY/WX    TMP DP  RH WIND       PRES   REMARKS
LK YELLOWSTONE   N/A     55  46  71 VRB3      30.34F
W YELLOWSTONE  NOT AVBL

$$
WYZ002>013-054>058-071-098>099-302100-
NORTHERN WYOMING

CITY           SKY/WX    TMP DP  RH WIND       PRES   REMARKS
JACKSON        MOSUNNY   55  48  76 CALM      30.28F
CODY           PTSUNNY   77  45  32 VRB6      30.12F
GREYBULL       FAIR      75  46  35 VRB6      30.07F
WORLAND        FAIR      76  46  34 VRB3      30.08F
SHERIDAN       FAIR      79  47  32 CALM      30.04F
BUFFALO        FAIR      74  43  32 E5        30.11F
GILLETTE       PTSUNNY   74  49  41 NE6       30.06F
HULETT         FAIR      77  48  36 SW14      30.07F
NEWCASTLE      FAIR      72  45  37 SE10      30.10F

$$
WYZ014>020-022>026-101>103-302100-
CENTRAL WYOMING

CITY           SKY/WX    TMP DP  RH WIND       PRES   REMARKS
BIG PINEY      FAIR      66  41  40 VRB3      30.29F
PINEDALE       FAIR      64  37  36 NW6       30.29F
DUBOIS         FAIR      66  37  34 NW13G20   30.25F
LANDER         FAIR      70  41  34 CALM      30.16F
RIVERTON       FAIR      73  42  32 VRB5G16   30.15F
CASPER         FAIR      75  41  29 W13       30.14F
DOUGLAS        CLOUDY    74  44  34 NW6       30.13F

$$
WYZ021-027>030-104>119-302100-
SOUTHERN WYOMING

CITY           SKY/WX    TMP DP  RH WIND       PRES   REMARKS
EVANSTON       CLOUDY    64  41  42 SW10      30.30F
FORT BRIDGER   FAIR      71  40  31 NW7G17    30.32F
ROCK SPRINGS   FAIR      68  40  35 W12       30.27F
DIXON          FAIR      65  46  50 SW6       30.31F
RAWLINS        PTSUNNY   68  40  35 SW17      30.27F
SARATOGA       CLOUDY    68  41  37 W15G21    30.29F
LARAMIE        PTSUNNY   67  41  38 W17G26    30.28F
CHEYENNE       CLOUDY    69  47  45 NE5       30.24F
TORRINGTON     CLOUDY    69  47  45 SE6       30.12F
PINE BLUFFS    CLOUDY    70  45  40 W6        30.21F

$$




USA.gov is the U.S. government's official web portal to all federal, state and local government web resources and services.